Starlink 4467

operational
NORAD ID: 53686 Int'l Des: 2022-105 Owner: SPXS Country: US Constellation: starlink
LEOCIRCULARRETROGRADESSO

About Starlink 4467

Description loading...

Live Position

Loading 3D Globe...

Upcoming Passes

Altitude History

Altitude vs Time

uPlot chart will show altitude changes over time

Two-Line Element Set

1 53686U 22105AQ 25353.18074759 .00001634 00000-0 13173-3 0 9999
2 53686 97.6014 231.4464 0001625 86.5296 273.6114 15.01262801181168
Epoch: Dec 19, 2025 • Age: 17 hours

Current Status

Altitude 572.2 km
Velocity 7.58 km/s
Sub-Earth Point 59.69°N, 23.56°E
Launch Date Aug 31, 2022
Age 3.3 years
Type internet

Technical Details

Classification Payload
Mass 300.00 kg
Dry Mass 290.00 kg
Total Mass 300.00 kg
Length 0.20 m
Diameter 2.80 m
Span 9.00 m
Shape Box + pan
Manufacturer SPXS
Bus Type Starlink
Phase Status In Orbit
Owner/State SPXS/US

Large Constellations

Loading constellations...